User: anonymous   Login
Location: Kirkland Lake
(48.1510°N, 80.0330°W)
Time: 19:56:44
(UTC-04:00)
Language:

ISS - Orbit

View from above orbital plane
View from above orbital plane
View from above satellite
View from above satellite

Ground track
Ground track

The orbit data is extracted from the following two-line orbital elements,

1 25544U 98067A   24141.89226294  .00027940  00000-0  46751-3 0  9992
2 25544  51.6383  90.6407 0003259 188.1297 270.8669 15.51657978454318
Epoch (UTC): 20 May 2024 21:24:51
Eccentricity: 0.0003259
inclination: 51.6383°
perigee height: 409 km
apogee height: 414 km
right ascension of ascending node: 90.6407°
argument of perigee: 188.1297°
revolutions per day: 15.51657978
mean anomaly at epoch: 270.8669°
orbit number at epoch: 45431

The dashed part of the orbit path shows where the satellite is in the earth's shadow,  

DLR